Location: Radomski Observatory
(40.2854°N, 79.5145°W)
Time: 09:13:31
(UTC-04:00)

Cosmos 1072 Rocket - Visible Passes

Search period start: 27 March 2015 00:00
Search period end: 06 April 2015 00:00
Orbit: 948 x 1009 km, 82.9° (Epoch: 26 March)

Date Brightness Start Highest point End Pass type
(mag) Time Alt. Az. Time Alt. Az. Time Alt. Az.
27 Mar 6.7 00:02:11 10° NW 00:04:39 17° WNW 00:04:39 17° WNW visible
27 Mar 6.0 20:58:18 10° NNE 21:01:36 15° ENE 21:01:47 15° ENE visible
27 Mar 4.9 22:41:48 10° N 22:46:32 55° NNW 22:46:32 55° NNW visible
28 Mar 5.4 21:23:26 10° NNE 21:28:27 28° ENE 21:28:27 28° ENE visible
28 Mar 5.6 23:08:31 10° NNW 23:13:14 38° WNW 23:13:14 38° WNW visible
29 Mar 4.6 21:49:18 10° N 21:55:10 52° ENE 21:55:10 52° ENE visible
29 Mar 6.4 23:35:47 10° NW 23:39:56 21° W 23:39:56 21° W visible
30 Mar 6.1 20:32:30 10° NE 20:35:18 14° ENE 20:37:09 12° E visible
30 Mar 4.3 22:15:36 10° N 22:21:44 84° W 22:21:55 83° SW visible
31 Mar 7.0 00:05:00 10° WNW 00:06:21 10° W 00:06:41 10° W visible
31 Mar 5.4 20:57:23 10° NNE 21:02:18 26° ENE 21:03:56 23° E visible
31 Mar 5.2 22:42:15 10° NNW 22:48:02 45° W 22:48:42 43° WSW visible
01 Apr 4.7 21:23:10 10° N 21:29:02 47° ENE 21:30:46 38° ESE visible
01 Apr 6.2 23:09:23 10° NNW 23:14:12 24° W 23:15:33 22° WSW visible
02 Apr 6.2 20:06:50 10° NE 20:08:59 12° ENE 20:11:31 10° E visible
02 Apr 4.3 21:49:24 10° N 21:55:32 87° E 21:57:39 44° S visible
02 Apr 7.0 23:37:49 10° WNW 23:40:15 12° W 23:42:16 10° W visible
03 Apr 5.6 20:31:21 10° NNE 20:36:01 23° ENE 20:39:48 14° ESE visible
03 Apr 5.1 22:15:59 10° NNW 22:21:52 50° W 22:24:35 30° SSW visible
04 Apr 4.8 20:57:03 10° N 21:02:48 42° ENE 21:06:47 19° SE visible
04 Apr 6.2 22:43:01 10° NNW 22:48:04 27° W 22:51:35 16° SW visible
05 Apr 4.3 21:23:13 10° N 21:29:21 79° E 21:33:51 19° SSE visible
05 Apr 7.0 23:11:03 10° NW 23:14:08 14° W 23:16:50 10° WSW visible
